When you browse on this site, cookies collect data to enhance your experience and personalize the content and advertising you see.
Visit our Privacy Policy to learn more. By continuing to use the site, you agree to this use of cookies and data.
  • In Slovakia
  • List of Countries
  • For 7 days
  • Water Temperature
  • Weather Map
  • Weather Widgets
  • user-avatar
    Login

    Hourly Weather Giumri

    Today, 5 June, Friday

    Time Temperature Precipitation Wind Pressure Humidity
    00:00 +12°C° 0 mm 1 mps 634 mmHg 71%
    01:00 +11°C° 0 mm 1 mps 634 mmHg 72%
    02:00 +11°C° 0 mm 1 mps 634 mmHg 73%
    03:00 +10°C° 0 mm 1 mps 634 mmHg 74%
    04:00 +11°C° 0 mm 1 mps 634 mmHg 73%
    05:00 +12°C° 0 mm 1 mps 635 mmHg 72%
    06:00 +13°C° 0 mm 1 mps 635 mmHg 71%
    07:00 +15°C° 0 mm 1 mps 636 mmHg 64%
    08:00 +17°C° 0 mm 2 mps 636 mmHg 57%
    09:00 +18°C° 0 mm 3 mps 637 mmHg 49%
    10:00 +19°C° 0 mm 3 mps 637 mmHg 45%
    11:00 +20°C° 0 mm 4 mps 637 mmHg 42%
    12:00 +21°C° 0 mm 4 mps 638 mmHg 39%
    13:00 +21°C° 0.1 mm 5 mps 638 mmHg 39%
    14:00 +21°C° 0.1 mm 5 mps 638 mmHg 39%
    15:00 +21°C° 0.1 mm 5 mps 638 mmHg 39%
    16:00 +21°C° 0.1 mm 4 mps 638 mmHg 45%
    17:00 +20°C° 0.1 mm 4 mps 637 mmHg 52%
    18:00 +19°C° 0.1 mm 3 mps 637 mmHg 59%
    19:00 +16°C° 0.3 mm 3 mps 637 mmHg 65%
    20:00 +14°C° 0.3 mm 2 mps 637 mmHg 71%
    21:00 +12°C° 0.3 mm 2 mps 636 mmHg 77%
    22:00 +10°C° 0.1 mm 2 mps 636 mmHg 76%
    23:00 +10°C° 0.1 mm 2 mps 636 mmHg 76%

    Tomorrow, 6 June, Saturday

    Time Temperature Precipitation Wind Pressure Humidity
    00:00 +10°C° 0.1 mm 1 mps 636 mmHg 75%
    01:00 +10°C° 0 mm 1 mps 636 mmHg 75%
    02:00 +9°C° 0 mm 1 mps 636 mmHg 74%
    03:00 +9°C° 0 mm 1 mps 636 mmHg 73%
    04:00 +10°C° 0 mm 1 mps 636 mmHg 72%
    05:00 +11°C° 0 mm 1 mps 637 mmHg 70%
    06:00 +11°C° 0 mm 1 mps 637 mmHg 69%
    07:00 +14°C° 0 mm 1 mps 638 mmHg 63%
    08:00 +16°C° 0 mm 1 mps 638 mmHg 57%
    09:00 +19°C° 0 mm 1 mps 639 mmHg 51%
    10:00 +20°C° 0.1 mm 1 mps 639 mmHg 46%
    11:00 +21°C° 0.1 mm 1 mps 639 mmHg 41%
    12:00 +22°C° 0.1 mm 1 mps 639 mmHg 35%
    13:00 +23°C° 0.1 mm 1 mps 639 mmHg 36%
    14:00 +23°C° 0.1 mm 2 mps 639 mmHg 37%
    15:00 +23°C° 0.1 mm 2 mps 639 mmHg 37%
    16:00 +21°C° 0 mm 2 mps 638 mmHg 45%
    17:00 +20°C° 0 mm 3 mps 638 mmHg 54%
    18:00 +19°C° 0 mm 3 mps 638 mmHg 62%
    19:00 +17°C° 0 mm 3 mps 637 mmHg 65%
    20:00 +14°C° 0 mm 3 mps 637 mmHg 69%
    21:00 +13°C° 0 mm 2 mps 637 mmHg 72%
    22:00 +12°C° 0 mm 2 mps 637 mmHg 71%
    23:00 +10°C° 0 mm 2 mps 637 mmHg 70%

    Day after tomorrow, 7 June, Sunday

    Time Temperature Precipitation Wind Pressure Humidity
    00:00 +9°C° 0 mm 2 mps 636 mmHg 69%
    01:00 +9°C° 0 mm 2 mps 636 mmHg 67%
    02:00 +9°C° 0 mm 2 mps 636 mmHg 65%
    03:00 +9°C° 0 mm 1 mps 636 mmHg 63%
    04:00 +10°C° 0 mm 1 mps 636 mmHg 64%
    05:00 +11°C° 0 mm 1 mps 636 mmHg 65%
    06:00 +12°C° 0 mm 1 mps 636 mmHg 66%
    07:00 +14°C° 0 mm 1 mps 637 mmHg 61%
    08:00 +16°C° 0 mm 1 mps 638 mmHg 55%
    09:00 +19°C° 0 mm 1 mps 638 mmHg 50%
    10:00 +21°C° 0 mm 1 mps 638 mmHg 47%
    11:00 +22°C° 0 mm 1 mps 638 mmHg 44%
    12:00 +23°C° 0 mm 1 mps 638 mmHg 41%
    13:00 +24°C° 0 mm 1 mps 638 mmHg 42%
    14:00 +24°C° 0 mm 1 mps 638 mmHg 42%
    15:00 +24°C° 0 mm 1 mps 638 mmHg 43%
    16:00 +24°C° 0 mm 1 mps 638 mmHg 49%
    17:00 +23°C° 0 mm 1 mps 637 mmHg 56%
    18:00 +23°C° 0 mm 1 mps 637 mmHg 63%
    19:00 +20°C° 0 mm 1 mps 637 mmHg 70%
    20:00 +18°C° 0 mm 1 mps 636 mmHg 78%
    21:00 +15°C° 0 mm 2 mps 636 mmHg 86%
    22:00 +14°C° 0 mm 2 mps 635 mmHg 86%
    23:00 +14°C° 0 mm 2 mps 635 mmHg 87%

    8 June, Monday

    Time Temperature Precipitation Wind Pressure Humidity
    00:00 +13°C° 0 mm 2 mps 635 mmHg 87%
    01:00 +13°C° 0 mm 2 mps 635 mmHg 86%
    02:00 +13°C° 0 mm 1 mps 635 mmHg 86%
    03:00 +12°C° 0 mm 1 mps 634 mmHg 85%
    04:00 +13°C° 0 mm 1 mps 635 mmHg 83%
    05:00 +14°C° 0 mm 1 mps 635 mmHg 81%
    06:00 +14°C° 0 mm 1 mps 635 mmHg 79%
    07:00 +16°C° 0 mm 1 mps 635 mmHg 72%
    08:00 +19°C° 0 mm 1 mps 636 mmHg 65%
    09:00 +21°C° 0 mm 1 mps 636 mmHg 58%
    10:00 +23°C° 0 mm 1 mps 636 mmHg 54%
    11:00 +24°C° 0 mm 1 mps 636 mmHg 49%
    12:00 +25°C° 0 mm 1 mps 636 mmHg 45%
    13:00 +25°C° 0.1 mm 1 mps 636 mmHg 46%
    14:00 +25°C° 0.1 mm 1 mps 636 mmHg 46%
    15:00 +25°C° 0.1 mm 1 mps 636 mmHg 47%
    16:00 +25°C° 0.2 mm 2 mps 635 mmHg 54%
    17:00 +24°C° 0.2 mm 2 mps 635 mmHg 61%
    18:00 +23°C° 0.2 mm 2 mps 635 mmHg 69%
    19:00 +20°C° 0.1 mm 2 mps 635 mmHg 73%
    20:00 +18°C° 0.1 mm 2 mps 634 mmHg 78%
    21:00 +16°C° 0.1 mm 2 mps 634 mmHg 82%
    22:00 +15°C° 0 mm 2 mps 634 mmHg 81%
    23:00 +15°C° 0 mm 2 mps 634 mmHg 81%

    9 June, Tuesday

    Time Temperature Precipitation Wind Pressure Humidity
    00:00 +14°C° 0 mm 2 mps 634 mmHg 80%
    01:00 +14°C° 0 mm 2 mps 634 mmHg 80%
    02:00 +13°C° 0 mm 2 mps 633 mmHg 79%
    03:00 +13°C° 0 mm 2 mps 633 mmHg 79%
    04:00 +14°C° 0 mm 2 mps 634 mmHg 78%
    05:00 +14°C° 0 mm 2 mps 634 mmHg 78%
    06:00 +15°C° 0 mm 2 mps 635 mmHg 78%
    07:00 +17°C° 0 mm 2 mps 635 mmHg 71%
    08:00 +19°C° 0 mm 2 mps 636 mmHg 64%
    09:00 +21°C° 0 mm 2 mps 636 mmHg 58%
    10:00 +23°C° 0.2 mm 2 mps 636 mmHg 55%
    11:00 +24°C° 0.2 mm 2 mps 637 mmHg 52%
    12:00 +25°C° 0.2 mm 2 mps 637 mmHg 50%
    13:00 +25°C° 0.2 mm 3 mps 637 mmHg 51%
    14:00 +25°C° 0.2 mm 4 mps 636 mmHg 52%
    15:00 +25°C° 0.2 mm 4 mps 636 mmHg 53%
    16:00 +23°C° 0.2 mm 4 mps 636 mmHg 58%
    17:00 +22°C° 0.2 mm 4 mps 636 mmHg 64%
    18:00 +21°C° 0.2 mm 3 mps 636 mmHg 69%
    19:00 +19°C° 0.6 mm 3 mps 636 mmHg 75%
    20:00 +16°C° 0.6 mm 2 mps 636 mmHg 80%
    21:00 +14°C° 0.6 mm 2 mps 635 mmHg 86%
    22:00 +14°C° 0.2 mm 2 mps 635 mmHg 85%
    23:00 +14°C° 0.2 mm 2 mps 635 mmHg 84%

    10 June, Wednesday

    Time Temperature Precipitation Wind Pressure Humidity
    00:00 +14°C° 0.2 mm 2 mps 635 mmHg 83%
    01:00 +13°C° 0.2 mm 2 mps 635 mmHg 84%
    02:00 +13°C° 0.2 mm 1 mps 635 mmHg 84%
    03:00 +12°C° 0.2 mm 1 mps 634 mmHg 85%
    04:00 +13°C° 0 mm 1 mps 635 mmHg 84%
    05:00 +14°C° 0 mm 1 mps 635 mmHg 83%
    06:00 +14°C° 0 mm 1 mps 635 mmHg 82%
    07:00 +16°C° 0.1 mm 1 mps 636 mmHg 76%
    08:00 +19°C° 0.1 mm 1 mps 636 mmHg 69%
    09:00 +21°C° 0.1 mm 1 mps 637 mmHg 63%
    10:00 +22°C° 0.7 mm 1 mps 637 mmHg 61%
    11:00 +23°C° 0.7 mm 2 mps 637 mmHg 59%
    12:00 +24°C° 0.7 mm 2 mps 637 mmHg 57%
    13:00 +24°C° 0.8 mm 2 mps 637 mmHg 56%
    14:00 +24°C° 0.8 mm 2 mps 637 mmHg 55%
    15:00 +24°C° 0.8 mm 2 mps 637 mmHg 54%
    16:00 +24°C° 0.3 mm 3 mps 636 mmHg 60%
    17:00 +22°C° 0.3 mm 3 mps 636 mmHg 65%
    18:00 +21°C° 0.3 mm 3 mps 636 mmHg 70%
    19:00 +19°C° 0.5 mm 3 mps 636 mmHg 75%
    20:00 +17°C° 0.5 mm 3 mps 635 mmHg 80%
    21:00 +13°C° 0.5 mm 3 mps 635 mmHg 86%
    22:00 +14°C° 0.5 mm 2 mps 635 mmHg 84%
    23:00 +14°C° 0.5 mm 2 mps 635 mmHg 83%
    Show more